Location: Marcé
(47.5801°N, 0.3280°W)
Time: 08:10:25
(UTC+01:00)

Vanguard 1 Rocket - Pass Details

Date: 30 November 2021
Orbit: 651 x 4224 km, 34.3° (Epoch: 23 January)

Event Time Altitude Azimuth Distance (km) Brightness Sun altitude
Exits shadow 04:44:52 34° 202° (SSW) 3,583 10.1 -36.7°
Maximum altitude 04:51:06 47° 158° (SSE) 3,657 10.3 -35.7°
Drops below altitude 10° 05:12:23 10° 94° (E) 7,264 12.8 -32.1°
Sets 05:18:51 0° 90° (E) 8,450 13.5 -31.0°
